Location: Unspecified
(0.0000°N, 0.0000°E)
Time: 09:28:04
(UTC+00:00)

ACS3 Solar Sail - Pass Details

Date: 08 November 2025
Orbit: 910 x 992 km, 97.3° (Epoch: 12 November)

Event Time Altitude Azimuth Distance (km) Brightness Sun altitude
Exits shadow 02:25:09 12° 154° (SSE) 2,614 4.4 -46.9°
Drops below altitude 10° 02:25:40 10° 157° (SSE) 2,766 4.5 -46.8°
Sets 02:28:30 0° 169° (SSE) 3,707 5.2 -46.1°
